Tracking 18624 objects as of 26-April-2017
HD Live streaming from Space Station
objects crossing your sky now

SL-16 DEB

Track SL-16 DEB now!
10-day predictions


NORAD ID: 22289
Int'l Code: 1992-093D
Perigee: 751.9 km
Apogee: 836.6 km
Inclination: 70.8 °
Period: 100.6 minutes
Semi major axis: 7165 km
RCS: 0.0658 m2 (small)
Launch date: December 25, 1992
Source: Commonwealth of Independent States (former USSR) (CIS)
Launch site: TYURATAM MISSILE AND SPACE COMPLEX (TTMTR)

Note: This is SATELLITE DEBRIS
Your satellite tracking list
Your tracking list is empty





NASA's NSSDC Master Catalog

Two Line Element Set (TLE):
1 22289U 92093D   17115.92606684 +.00000069 +00000-0 +44273-4 0  9991
2 22289 070.8340 031.4104 0059084 069.3283 003.3171 14.31387030269874
Source of the keplerian elements: AFSPC